#timestamp,LO_Frequency,Hit,StdDev 
1664676015.2,286047001.6,N
1664676035.1,286047002.0,N
1664676036.0,286047002.0,N
1664676055.8,286047002.5,N
1664676075.6,286047002.8,N
1664676095.5,286047000.5,N
1664676115.3,286047001.2,N
1664676135.2,286047000.5,N
1664676155.9,286047001.1,N
1664676175.7,286046999.7,N
1664676195.6,286046999.9,N
1664676215.4,286046999.7,N
1664676235.2,286047002.4,N
1664676255.1,286047002.6,N
1664676256.0,286047002.6,N
1664676275.8,286047000.3,N
1664676295.7,286047001.0,N
1664676315.5,286047000.8,N
1664676335.3,286047001.2,N
1664676355.2,286047000.4,N
1664676375.0,286047002.4,N
1664676375.9,286047002.4,N
1664676395.7,286047002.7,N
1664676415.6,286047002.8,N
1664676435.4,286047002.7,N
1664676455.3,286047002.6,N
1664676475.1,286047002.4,N
1664676495.8,286047002.8,N
1664676515.7,286046999.7,N
1664676535.5,286047000.7,N
1664676555.4,286047000.4,N
1664676575.2,286046999.9,N
1664676595.0,286046999.9,N
1664676595.9,286046999.9,N
1664676615.8,286047002.7,N
1664676635.6,286047002.5,N
1664676655.4,286047000.5,N
1664676675.3,286046999.8,N
1664676695.1,286047002.3,N
1664676715.9,286047002.3,N
1664676735.7,286047002.8,N
1664676755.5,286047004.4,Y
1664676775.4,286046998.2,P
1664676795.2,286046998.1,N
1664676815.0,286046997.0,N
1664676815.9,286046997.0,N
1664676835.8,286046995.3,N
1664676855.6,286046996.2,N
1664676875.5,286046995.8,N
1664676895.3,286046995.8,N
1664676915.1,286046997.6,N
1664676935.9,286046996.7,N
1664676955.7,286046997.7,N
1664676975.6,286046995.4,N
1664676995.4,286046995.9,N
1664677015.2,286046996.1,N
1664677035.1,286046995.8,N
1664677036.0,286046995.8,N
1664677055.8,286046997.1,N
1664677075.6,286046997.0,N
1664677095.5,286046996.9,N
1664677115.3,286046996.6,N
1664677135.2,286046996.5,N
1664677155.9,286046996.6,N
1664677175.7,286046999.3,N
1664677195.6,286046997.5,N
1664677215.4,286046997.5,N
1664677235.2,286046996.5,N
1664677255.1,286046999.2,N
1664677256.0,286046999.2,N
1664677275.8,286046996.5,N
1664677295.7,286046998.2,N
1664677315.5,286046998.8,N
1664677335.3,286046998.6,N
1664677355.2,286046998.4,N
1664677375.0,286046998.7,N
1664677375.9,286046998.7,N
1664677395.7,286046999.3,N
1664677415.6,286046997.4,N
1664677435.4,286046997.6,N
1664677455.3,286046997.2,N
1664677475.1,286046996.9,N
1664677476.0,286046996.9,N
1664677495.8,286046996.5,Y
1664677515.7,286047000.4,P
1664677535.5,286047000.3,N
1664677555.4,286047001.0,N
1664677575.2,286047002.7,N
1664677595.0,286046999.7,N
1664677595.9,286046999.7,N
1664677615.8,286047002.8,N
1664677635.6,286047001.0,N
1664677655.4,286047000.4,N
1664677675.3,286047000.0,N
1664677695.1,286047002.7,N
1664677715.9,286047002.1,N
1664677735.7,286046999.7,N
1664677755.5,286047002.4,N
1664677775.4,286046999.7,N
1664677795.2,286047002.6,N
1664677815.1,286047001.8,N
1664677816.0,286047001.8,N
1664677835.8,286047002.8,N
1664677855.7,286047001.5,N
1664677875.5,286047001.5,N
1664677895.3,286047001.4,N
1664677915.2,286047002.0,N
1664677935.0,286047002.0,N
1664677935.9,286047002.0,N
1664677955.7,286047001.4,N
1664677975.6,286047002.5,N
1664677995.4,286046999.8,N
1664678015.3,286047002.5,N
1664678035.1,286047002.6,N
1664678055.8,286047002.7,N
1664678075.7,286047002.5,N
1664678095.5,286047001.4,N
1664678115.4,286047001.6,N
1664678135.2,286047001.8,N
1664678155.0,286047001.4,N
1664678155.9,286047001.4,N
1664678175.8,286047002.8,Y
1664678195.6,286047000.4,P
1664678215.4,286047000.5,N
1664678235.3,286047000.4,N
1664678255.1,286046999.7,N
1664678275.9,286046999.9,N
1664678295.7,286047002.7,Y
1664678315.5,286047002.3,P
1664678335.4,286047000.4,N
1664678355.2,286047000.6,N
1664678375.1,286047000.2,N
1664678376.0,286047000.2,N
1664678395.8,286047000.8,N
1664678415.6,286046999.4,N
1664678435.5,286046998.7,N
1664678455.3,286046998.5,N
1664678475.1,286046998.3,N
1664678495.9,286047001.2,N
1664678515.7,286047000.8,N
1664678535.6,286047000.8,N
1664678555.4,286046998.6,N
1664678575.2,286046998.9,N
1664678595.1,286046999.3,N
1664678596.0,286046999.3,N
1664678615.8,286046996.6,Y
1664678635.7,286046995.3,P
1664678655.5,286046997.1,N
1664678675.3,286046997.1,N
1664678695.2,286046996.7,N
1664678715.0,286046995.2,Y
1664678715.9,286046995.2,P
1664678735.7,286046999.4,N
1664678755.6,286046999.4,N
1664678775.4,286046998.8,N
1664678795.3,286046999.5,N
1664678815.1,286046997.0,N
1664678835.8,286046996.7,N
1664678855.7,286046996.8,N
1664678875.5,286046999.5,N
1664678895.4,286046997.2,N
1664678915.2,286046996.6,N
1664678935.0,286046999.4,N
1664678935.9,286046999.4,N
1664678955.8,286046998.4,N
1664678975.6,286046998.7,N
1664678995.4,286046999.5,N
1664679015.3,286046998.9,N
1664679035.1,286046998.5,N
1664679055.9,286046998.8,N
1664679075.7,286046999.1,N
1664679095.5,286046999.1,N
1664679115.4,286046996.9,N
1664679135.2,286046997.8,N
1664679155.0,286046993.5,Y
1664679156.0,286046993.5,P
1664679175.8,286046995.0,N
1664679195.6,286046997.2,N
1664679215.5,286046997.2,N
1664679235.3,286046997.5,N
1664679255.1,286046998.0,N
1664679275.9,286046997.5,N
1664679295.7,286046997.7,N
1664679315.6,286046995.6,N
1664679335.4,286046994.4,Y
1664679355.2,286046999.2,P
1664679375.1,286046998.7,N
1664679376.0,286046998.7,N
1664679395.8,286046999.6,N
1664679415.6,286046997.1,N
1664679435.5,286046996.7,Y
1664679455.3,286047000.2,P
1664679475.2,286047000.8,N
1664679495.9,286046996.5,P
1664679515.7,286046997.2,N
1664679535.6,286046997.5,N
1664679555.4,286046995.4,N
1664679575.2,286046995.9,N
1664679595.1,286046995.7,N
1664679596.0,286046995.7,N
